Location: Keppel Henge
(44.7900°N, 80.9447°W)
Time: 02:59:26
(UTC-05:00)

Vanguard 1 Rocket - Pass Details

Date: 24 October 2017
Orbit: 655 x 4222 km, 34.3° (Epoch: 24 November)

Event Time Altitude Azimuth Distance (km) Brightness Sun altitude
Rises 09:23:05 0° 253° (WSW) 4,591 10.6 13.9°
Reaches altitude 10° 09:27:07 10° 244° (WSW) 3,104 9.9 14.5°
Maximum altitude 09:32:57 29° 186° (S) 1,500 9.1 15.4°
Drops below altitude 10° 09:37:06 10° 125° (SE) 2,165 12.3 16.0°
Sets 09:39:24 0° 113° (ESE) 2,989 11.7 16.3°
